ARIANE 2 DEB, 33581

Orbit data source: Space-Track

ARIANE 2 DEB, 33581 is space debris in HEO originally from a launch on Fri, 27 Jan 1989 UTC launched from the French Guiana (FRGUI). Debris objects in space refer to the collection of defunct objects orbiting the Earth. Examples of debris include non-operational satellites, rocket bodies, and fragments generated from explosions, collisions, or faulty payload assembly.

Loading next visibility...
Identifier
33581, 1989-006BZ
Orbit
HEO
Country
Flag of FRFR
Related business
Manufacturer
EADS/LV
Mission
Spacecraft
Bus & Motor
Unknown
Mass
Unknown
Launch date (UTC)
1989-01-27 (37 years ago)
Launch vehicle
Unknown
Launch site
French Guiana (FRGUI)
Object type
Payload
Rocket body
Debris
Shape & HBR
Unknown shape, 0.2 m
Radar Cross Section
Medium (>0.1 m² and <1 m²)

Expand to show TLE details & history
Last TLE update: 2 months ago

TLE from 2 months ago
0 ARIANE 2 DEB
1 33581U 89006BZ  25276.31534234  .00000038  00000-0  39931-2 0  9998
2 33581   8.1387 215.5891 7103814 160.2782 351.1246  2.30832336 36630
Epoch: 2025-10-03T07:34Z
TLE epoch observation values (Epoch: 2025-10-03T07:34:05.578Z)
Latitude
8.14139°
Longitude
-172.16267°
Altitude
2,598.91 km
Speed
8.504 km/s
True Right ascension
20h 54m 29s
True Declination
8° 06' 11"
Sunlit
Object was in daylight at epoch
Visualization orbit readout
Latitude
Unknown
Longitude
Unknown
Altitude
Unknown
Speed
Unknown
Apparent Right ascension
Unknown
Apparent Declination
Unknown
Sunlit
N/A
Visualization observer readout
Local Sidereal Time
13:23:56
Azimuth
Unknown
Elevation
Unknown
Doppler factor
Unknown
Orbital elements
Apogee altitude
34,995.302 km
Perigee altitude
627.621 km
Semi-major axis
24,189.598 km
Eccentricity
0.71038
Inclination
8.1387°
RAAN
215.5891°
Arg. of periapsis
160.2782°
True anomaly
297.65855°
Mean anomaly
351.1246°
Eccentric anomaly
332.04357°
Mean motion
0.5769 °/min
Orbital period
624.03 mins
BSTAR
0.0039931
Loading maneuver chart data...
Computing Atmospheric mass density...
Loading historical data...
Loading historical data...
Loading historical data...
Loading historical data...
Loading historical data...
Loading historical data...
Loading historical data...

Documentation

Showing up to 5 results
|